Change the Weather History Date:

Sunday, April 21, 2013

  Actual Average Record
Temperature  
Mean Temperature 60 °F 68 °F  
Max Temperature 72 °F 80 °F 95 °F (1968)
Min Temperature 48 °F 56 °F 38 °F (1983)
Degree Days  
Heating Degree Days 5 1  
Month to date heating degree days 33 47  
Since 1 July heating degree days 1230 1336  
Cooling Degree Days 0 4  
Month to date cooling degree days 89 68  
Year to date cooling degree days 181 151  
Growing Degree Days 10 (Base 50)    
Moisture  
Dew Point 55 °F    
Average Humidity 80    
Maximum Humidity 96    
Minimum Humidity 63    
Precipitation  
Precipitation 0.01 in 0.08 in 2.29 in (1992)
Month to date precipitation 2.19 1.99  
Year to date precipitation 10.98 12.43  
Snow  
Snow 0.00 in 0.00 in 0.00 in (2002)
Month to date snowfall 0.0 0.0  
Since 1 July snowfall 0.0 T  
Snow Depth 0.00 in    
Sea Level Pressure  
Sea Level Pressure 30.19 in    
Wind  
Wind Speed 14 mph (NNE)    
Max Wind Speed 28 mph    
Max Gust Speed 37 mph    
Visibility 9 miles    
Events      
T = Trace of Precipitation, MM = Missing Value Source: NWS Daily Summary

Daily Weather History Graph

Daily Weather History Graph

Search for Another Location

Airport or City:

Trip Planner

Search our weather history database for the weather conditions in past years. The results will help you decide how hot, cold, wet, or windy it might be!

Date:

Astronomy

Apr. 21, 2013 Rise Set
Actual Time 6:52 AM EDT 7:58 PM EDT
Civil Twilight 6:27 AM EDT 8:23 PM EDT
Nautical Twilight 5:58 AM EDT 8:53 PM EDT
Astronomical Twilight 5:27 AM EDT 9:23 PM EDT
Moon 3:58 PM EDT (4/21) 3:55 AM EDT (4/21)
Length of Visible Light 13h 55m
Length of Day
13h 05m
Waxing Gibbous, 79% of the Moon is Illuminated
Apr 21
Waxing Gibbous
Apr 25
Full
May 2
Last Quarter
May 9
New
May 18
First Quarter

Hourly Weather History & Observations

Time (EDT) Temp. Dew Point Humidity Pressure Visibility Wind Dir Wind Speed Gust Speed Precip Events Conditions
12:56 AM 50.0 °F 48.0 °F 93% 30.21 in 10.0 mi Calm Calm - N/A   Scattered Clouds
1:56 AM 48.9 °F 46.9 °F 93% 30.19 in 10.0 mi Calm Calm - N/A   Scattered Clouds
2:33 AM 50.0 °F 48.2 °F 94% 30.18 in 10.0 mi WNW 3.5 mph - N/A   Mostly Cloudy
2:56 AM 52.0 °F 50.0 °F 93% 30.18 in 10.0 mi Calm Calm - N/A   Mostly Cloudy
3:22 AM 53.6 °F 50.0 °F 88% 30.18 in 10.0 mi North 6.9 mph - N/A   Mostly Cloudy
3:56 AM 51.1 °F 48.9 °F 92% 30.17 in 10.0 mi NNE 4.6 mph - N/A   Partly Cloudy
4:56 AM 51.1 °F 48.0 °F 89% 30.17 in 10.0 mi North 8.1 mph - N/A   Partly Cloudy
5:56 AM 50.0 °F 46.9 °F 89% 30.17 in 10.0 mi North 6.9 mph - N/A   Partly Cloudy
6:56 AM 52.0 °F 48.0 °F 86% 30.18 in 10.0 mi Calm Calm - N/A   Partly Cloudy
7:56 AM 57.0 °F 51.1 °F 81% 30.19 in 10.0 mi NNE 4.6 mph - N/A   Partly Cloudy
8:56 AM 63.0 °F 53.1 °F 70% 30.19 in 10.0 mi NE 12.7 mph - N/A   Scattered Clouds
9:56 AM 66.9 °F 54.0 °F 63% 30.20 in 10.0 mi NE 15.0 mph - N/A   Mostly Cloudy
10:56 AM 66.9 °F 55.0 °F 66% 30.21 in 10.0 mi NE 16.1 mph - N/A   Mostly Cloudy
11:05 AM 66.2 °F 55.4 °F 68% 30.21 in 10.0 mi NE 18.4 mph 25.3 mph N/A   Mostly Cloudy
11:42 AM 68.0 °F 57.2 °F 68% 30.22 in 10.0 mi NE 13.8 mph 25.3 mph N/A   Overcast
11:56 AM 66.9 °F 57.0 °F 70% 30.23 in 10.0 mi NE 19.6 mph 24.2 mph N/A   Overcast
12:23 PM 66.2 °F 57.2 °F 73% 30.22 in 10.0 mi NE 19.6 mph 25.3 mph N/A   Overcast
12:56 PM 68.0 °F 57.9 °F 70% 30.22 in 10.0 mi NE 17.3 mph 24.2 mph N/A   Overcast
1:56 PM 68.0 °F 57.9 °F 70% 30.21 in 10.0 mi NE 16.1 mph 27.6 mph N/A   Overcast
2:56 PM 66.9 °F 57.9 °F 73% 30.19 in 10.0 mi NE 16.1 mph 26.5 mph N/A   Overcast
3:56 PM 66.9 °F 57.9 °F 73% 30.15 in 10.0 mi NE 20.7 mph 29.9 mph N/A   Overcast
4:56 PM 66.0 °F 59.0 °F 78% 30.14 in 10.0 mi NE 16.1 mph 25.3 mph N/A   Overcast
5:56 PM 66.0 °F 59.0 °F 78% 30.17 in 8.0 mi NE 20.7 mph 29.9 mph N/A   Overcast
6:56 PM 64.9 °F 60.1 °F 84% 30.16 in 7.0 mi NE 19.6 mph 28.8 mph N/A   Overcast
7:56 PM 64.9 °F 59.0 °F 81% 30.18 in 3.0 mi NNE 18.4 mph 31.1 mph N/A   Overcast
8:56 PM 64.9 °F 60.1 °F 84% 30.17 in 7.0 mi NE 18.4 mph 31.1 mph N/A   Overcast
9:56 PM 64.9 °F 60.1 °F 84% 30.17 in 7.0 mi NE 20.7 mph 28.8 mph N/A   Overcast
10:56 PM 64.9 °F 60.1 °F 84% 30.17 in 7.0 mi NE 23.0 mph 31.1 mph N/A   Overcast
11:56 PM 64.0 °F 60.1 °F 87% 30.17 in 6.0 mi NE 19.6 mph 25.3 mph N/A   Overcast